DW4707 Campi Bisenzio - Firenze IT current weather conditions

sailwx.info

Wind from 045

Air temperature 28.9° C
Dewpoint 17.7° C

Last reported at 2014-Aug-29 17:37 UTC.
Time now 2014-Aug-29 18:26 UTC

Location: N 43°50' E 011°08'.
View on Google Maps.

See reports from other nearby stations

  
Tides and Currents Weather Stations Pressure Air Temp Water Temp Dewpoint Dewpoint Depression Visibility Wind Speed Wind Dir Waves Ship Positions
date/time (UTC)wind fromknots sea level pressurealtimeterstation pressurevisibilityair tempwater tempwave heightnotes
2014-Aug-29 17:37 045 28.9
2014-Aug-29 17:27 068 28.9
2014-Aug-29 17:17 29.4
2014-Aug-29 17:07 29.4
2014-Aug-29 16:57 022 30.0
2014-Aug-29 16:47 022 30.6
2014-Aug-29 16:37 022 30.6
2014-Aug-29 16:27 022 30.6
2014-Aug-29 16:17 086 30.6
2014-Aug-29 16:07 068 31.1
2014-Aug-29 15:57 225 31.1
2014-Aug-29 15:47 338 31.1
2014-Aug-29 15:37 297 31.1
2014-Aug-29 15:27 353 31.1
2014-Aug-29 15:17 112 0 gusting 0 31.1
2014-Aug-29 15:07 022 0 gusting 0 31.1
2014-Aug-29 14:57 045 31.1
2014-Aug-29 14:47 040 0 gusting 0 31.1
2014-Aug-29 14:37 045 31.1
2014-Aug-29 14:27 31.1
2014-Aug-29 14:17 094 31.7
2014-Aug-29 14:07 219 31.1
2014-Aug-29 13:57 338 31.1
2014-Aug-29 13:47 31.1
2014-Aug-29 13:37 004 0 gusting 0 31.1
2014-Aug-29 13:27 338 31.1
2014-Aug-29 13:17 022 31.7
2014-Aug-29 13:07 090 31.7
2014-Aug-29 12:57 022 31.7
2014-Aug-29 12:47 045 31.7
2014-Aug-29 12:37 055 31.7
2014-Aug-29 12:27 171 0 gusting 1 31.7
2014-Aug-29 12:17 133 31.7
2014-Aug-29 12:07 036 31.7
2014-Aug-29 11:57 045 0 gusting 1 31.1
2014-Aug-29 11:47 112 31.7
2014-Aug-29 11:37 150 0 gusting 0 31.1
2014-Aug-29 11:27 022 31.1
2014-Aug-29 11:17 180 1 gusting 4 30.6
2014-Aug-29 11:07 225 30.6
2014-Aug-29 10:57 022 30.6
2014-Aug-29 10:47 068 31.1
2014-Aug-29 10:37 245 0 gusting 0 30.6
2014-Aug-29 10:27 022 30.0
2014-Aug-29 10:17 045 30.0
2014-Aug-29 10:07 180 30.6
2014-Aug-29 09:57 068 0 gusting 1 30.6
2014-Aug-29 09:47 068 0 gusting 1 30.0
2014-Aug-29 09:37 054 30.0
2014-Aug-29 09:27 045 30.6
2014-Aug-29 09:17 180 30.0
2014-Aug-29 09:07 142 30.0
2014-Aug-29 08:57 069 28.9
2014-Aug-29 08:47 202 28.3
2014-Aug-29 08:37 355 27.8
2014-Aug-29 08:27 068 26.7
2014-Aug-29 08:17 135 26.7
2014-Aug-29 08:07 067 26.7
2014-Aug-29 07:47 045 27.8
2014-Aug-29 07:37 166 26.7
2014-Aug-29 07:27 045 26.7
2014-Aug-29 07:17 022 26.7
2014-Aug-29 07:07 102 26.1
2014-Aug-29 06:57 25.0
2014-Aug-29 06:47 045 25.6
2014-Aug-29 06:37 045 0 gusting 0 24.4
2014-Aug-29 06:27 180 0 gusting 1 24.4
2014-Aug-29 06:17 045 23.9
2014-Aug-29 06:07 014 23.3
2014-Aug-29 05:57 161 21.7
2014-Aug-29 05:47 180 21.1
2014-Aug-29 05:37 045 20.6
2014-Aug-29 05:27 202 20.6
2014-Aug-29 05:17 158 21.1
2014-Aug-29 05:07 192 21.7
2014-Aug-29 04:57 043 21.7
2014-Aug-29 04:47 202 22.2
2014-Aug-29 04:37 059 22.2
2014-Aug-29 04:27 013 22.2
2014-Aug-29 04:17 068 1 gusting 2 22.2
2014-Aug-29 04:07 027 0 gusting 0 22.2
2014-Aug-29 03:57 060 21.7
2014-Aug-29 03:47 090 21.1
2014-Aug-29 03:37 255 21.1
2014-Aug-29 03:27 338 21.7
2014-Aug-29 03:17 045 22.2
2014-Aug-29 03:07 22.2
2014-Aug-29 02:57 047 22.8
2014-Aug-29 02:47 022 0 gusting 0 22.8
2014-Aug-29 02:37 026 22.2
2014-Aug-29 02:27 204 22.8
2014-Aug-29 02:17 22.8
2014-Aug-29 02:07 004 22.8
2014-Aug-29 01:57 322 0 gusting 2 22.8
2014-Aug-29 01:47 022 1 gusting 2 22.8
2014-Aug-29 01:37 022 22.8
2014-Aug-29 01:27 049 22.8
2014-Aug-29 01:17 022 22.8
2014-Aug-29 01:07 022 1 gusting 2 22.8
2014-Aug-29 00:57 022 22.8
2014-Aug-29 00:47 022 22.8
2014-Aug-29 00:37 022 22.8
2014-Aug-29 00:27 121 22.8
2014-Aug-29 00:17 006 22.8
2014-Aug-29 00:07 22.8
2014-Aug-28 23:57 022 22.8
2014-Aug-28 23:47 022 22.8
2014-Aug-28 23:37 068 22.8
2014-Aug-28 23:27 035 22.8
2014-Aug-28 23:17 054 22.8
2014-Aug-28 23:07 003 23.3
2014-Aug-28 22:57 021 23.3
2014-Aug-28 22:47 202 23.3
2014-Aug-28 22:37 022 23.3
2014-Aug-28 22:27 022 23.3
2014-Aug-28 22:17 011 23.3
2014-Aug-28 22:07 045 23.3
2014-Aug-28 21:57 045 23.3
2014-Aug-28 21:47 343 23.3
2014-Aug-28 21:37 248 23.3
2014-Aug-28 21:27 180 23.3
2014-Aug-28 21:17 039 23.3
2014-Aug-28 21:07 068 23.3
2014-Aug-28 20:57 112 23.3
2014-Aug-28 20:47 124 23.3
2014-Aug-28 20:37 043 0 gusting 1 23.3
2014-Aug-28 20:27 022 23.9
2014-Aug-28 20:17 029 23.9
2014-Aug-28 20:07 222 23.9
2014-Aug-28 19:57 158 2 gusting 5 23.9
2014-Aug-28 19:47 225 23.9
2014-Aug-28 19:37 292 0 gusting 0 24.4
2014-Aug-28 19:27 022 0 gusting 0 24.4
2014-Aug-28 19:17 057 0 gusting 2 24.4
2014-Aug-28 19:07 068 0 gusting 5 24.4
2014-Aug-28 18:57 25.0
2014-Aug-28 18:47 033 1 gusting 1 25.0
2014-Aug-28 18:37 292 1 gusting 2 25.0
2014-Aug-28 18:27 045 1 gusting 2 25.6
2014-Aug-28 18:17 076 2 gusting 5 25.6
2014-Aug-28 18:07 045 2 gusting 5 26.1
2014-Aug-28 17:57 338 26.1
2014-Aug-28 17:47 038 0 gusting 2 26.1
2014-Aug-28 17:37 022 26.7
2014-Aug-28 17:27 26.7
2014-Aug-28 17:17 034 1 gusting 4 27.2
2014-Aug-28 17:07 022 0 gusting 4 27.8
2014-Aug-28 16:57 27.8
2014-Aug-28 16:47 039 27.8
2014-Aug-28 16:37 343 1 gusting 2 27.8
2014-Aug-28 16:27 090 0 gusting 1 28.3
2014-Aug-28 16:17 034 28.3
2014-Aug-28 16:07 112 2 gusting 4 28.9
2014-Aug-28 15:57 022 1 gusting 2 28.9
2014-Aug-28 15:47 057 0 gusting 0 28.9
2014-Aug-28 15:37 068 0 gusting 2 29.4
2014-Aug-28 15:27 29.4
2014-Aug-28 15:17 29.4
2014-Aug-28 15:07 151 29.4
2014-Aug-28 14:57 29.4
2014-Aug-28 14:47 041 1 gusting 2 29.4
2014-Aug-28 14:37 031 0 gusting 2 29.4
2014-Aug-28 14:27 068 30.0
2014-Aug-28 14:17 045 30.0
2014-Aug-28 14:07 042 1 gusting 2 30.0
2014-Aug-28 13:57 30.0
2014-Aug-28 13:47 346 1 gusting 1 30.0
2014-Aug-28 13:37 135 0 gusting 4 30.0
2014-Aug-28 13:27 112 1 gusting 4 30.6
2014-Aug-28 13:17 30.6
2014-Aug-28 13:07 048 0 gusting 4 30.0
2014-Aug-28 12:57 045 0 gusting 2 30.6
2014-Aug-28 12:47 124 0 gusting 0 30.6
2014-Aug-28 12:37 068 1 gusting 2 30.6
2014-Aug-28 12:27 338 0 gusting 2 30.6
2014-Aug-28 12:17 005 0 gusting 2 30.6
2014-Aug-28 12:07 023 1 gusting 2 30.6
2014-Aug-28 11:57 022 1 gusting 2 30.6
2014-Aug-28 11:47 084 1 gusting 6 30.6
2014-Aug-28 11:37 046 1 gusting 5 30.6
2014-Aug-28 11:27 30.6
2014-Aug-28 11:17 008 0 gusting 2 30.6
2014-Aug-28 11:07 045 30.6
2014-Aug-28 10:57 30.6
2014-Aug-28 10:47 348 1 gusting 5 30.6
2014-Aug-28 10:37 022 0 gusting 1 30.6
2014-Aug-28 10:27 30.0
2014-Aug-28 10:17 338 30.0
2014-Aug-28 10:07 30.0
2014-Aug-28 09:57 315 30.0
2014-Aug-28 09:47 164 30.0
2014-Aug-28 09:37 304 0 gusting 2 29.4
2014-Aug-28 09:27 29.4
2014-Aug-28 09:17 015 29.4
2014-Aug-28 09:07 060 0 gusting 1 28.3
2014-Aug-28 08:57 27.8
2014-Aug-28 08:47 025 27.2
2014-Aug-28 08:37 010 0 gusting 0 26.7
2014-Aug-28 08:27 26.1
2014-Aug-28 08:17 315 25.6
2014-Aug-28 08:07 197 25.6
2014-Aug-28 07:57 135 26.1
2014-Aug-28 07:47 144 0 gusting 0 26.7
2014-Aug-28 07:37 145 0 gusting 0 25.6
2014-Aug-28 07:27 090 25.6
2014-Aug-28 07:17 095 25.0
2014-Aug-28 07:07 039 0 gusting 0 24.4
2014-Aug-28 06:57 068 24.4
2014-Aug-28 06:47 112 23.9
2014-Aug-28 06:37 053 23.3
2014-Aug-28 06:27 158 22.2
2014-Aug-28 06:17 006 21.7
2014-Aug-28 06:07 010 21.1
2014-Aug-28 05:57 135 20.0
2014-Aug-28 05:47 045 19.4
2014-Aug-28 04:47 180 18.9
2014-Aug-28 04:37 180 18.9
2014-Aug-28 04:27 225 18.9
2014-Aug-28 04:17 158 19.4
2014-Aug-28 04:07 180 19.4
2014-Aug-28 03:57 180 18.9
2014-Aug-28 03:47 202 19.4
2014-Aug-28 03:37 202 19.4
2014-Aug-28 03:27 202 19.4
2014-Aug-28 03:17 158 19.4
2014-Aug-28 03:07 106 20.0
2014-Aug-28 02:57 180 20.0
2014-Aug-28 02:47 071 20.0
2014-Aug-28 02:37 001 20.6
2014-Aug-28 02:27 022 20.6
2014-Aug-28 02:17 022 20.6
2014-Aug-28 02:07 010 20.6
2014-Aug-28 01:57 202 20.6
2014-Aug-28 01:47 225 20.6
2014-Aug-28 01:37 022 20.6
2014-Aug-28 01:27 180 20.6
2014-Aug-28 01:07 084 20.6
2014-Aug-28 00:57 045 20.6
2014-Aug-28 00:47 068 20.6
2014-Aug-28 00:37 158 20.6
2014-Aug-28 00:27 180 20.6
2014-Aug-28 00:17 202 20.6
2014-Aug-28 00:07 202 20.6
2014-Aug-27 23:57 202 20.6
2014-Aug-27 23:47 202 20.0
2014-Aug-27 23:37 315 20.6
2014-Aug-27 23:27 315 20.6
2014-Aug-27 23:17 180 20.6
2014-Aug-27 23:07 158 20.6
2014-Aug-27 22:57 158 20.6
2014-Aug-27 22:47 158 20.6
2014-Aug-27 22:37 135 20.6
2014-Aug-27 22:27 112 20.6
2014-Aug-27 22:17 180 20.6
2014-Aug-27 22:07 158 21.1
2014-Aug-27 21:57 158 21.1
2014-Aug-27 21:47 158 21.1
2014-Aug-27 21:37 076 21.1
2014-Aug-27 21:27 180 21.7
2014-Aug-27 21:17 248 21.7
2014-Aug-27 21:07 177 21.7
2014-Aug-27 20:57 315 22.2
2014-Aug-27 20:47 180 22.2
2014-Aug-27 20:37 292 22.2
2014-Aug-27 20:27 302 22.2
2014-Aug-27 20:17 135 22.8
2014-Aug-27 20:07 333 22.8
2014-Aug-27 19:57 112 22.8
2014-Aug-27 19:47 158 22.8
2014-Aug-27 19:37 170 23.3
2014-Aug-27 19:27 248 23.3
2014-Aug-27 19:17 022 23.3
2014-Aug-27 19:07 228 23.3
2014-Aug-27 18:57 180 23.3
2014-Aug-27 18:47 068 23.3
2014-Aug-27 18:37 022 23.9
2014-Aug-27 18:27 045 23.9
2014-Aug-27 18:17 045 24.4
2014-Aug-27 18:07 068 24.4